Flag for Italy Weather past 2 weeks in Palermo, Italy

Now
82 °F

Clear.


Feels Like: 87 °F
Forecast: 73 / 88 °F
Wind: 3 mph from West

Location: Palermo / Punta Raisi

Current Time: Sep 21, 2014 at 8:29:44 PM

Latest Report: Sep 21, 2014 at 7:50 PM


Visibility: 5 mi

Pressure: 30.01 "Hg

Humidity: 70%

Dew point: 72 °F

Location of PalermoLocation

Historic Weather in Palermo — Graph

°F

Palermo temperature yesterday

Maximum temperature yesterday: 84 °F (at 10:50 AM)
Minimum temperature yesterday: 77 °F (at 2:20 AM)
Average temperature yesterday: 80 °F

Past Weeks' High & Low Weather Summary

 TemperatureHumidityPressure
High93 °F (Sep 19, 10:20 AM)94% (Sep 21, 2:50 AM)30.09 "Hg (Sep 21, 2:50 AM)
Low68 °F (Sep 14, 6:20 AM)24% (Sep 19, 10:20 AM)29.83 "Hg (Sep 10, 7:50 PM)
Average78 °F72%29.97 "Hg
* Reported Sep 6 7:20 PM — Sep 21 7:20 PM, Palermo, Weather by CustomWeather, © 2014

Note: Actual official high and low records may vary slightly from our data, if they occured in-between our weather recording intervals... More about our weather records

Advertising

Palermo weather history for previous 24 hours

 ConditionsComfort  
Time TempWeatherWind HumidityBarometerVisibility
7:20 PM
Sep 21
84 °FClear.3 mph55%30.01 "Hg5 mi
6:50 PM86 °FClear.3 mph52%30.01 "Hg5 mi
6:20 PM86 °FClear.6 mph55%30.01 "Hg5 mi
5:50 PM86 °FClear.3 mph49%30.01 "Hg5 mi
5:20 PM91 °FClear.3 mph28%30.01 "Hg5 mi
4:50 PM90 °FClear.7 mph31%30.04 "Hg5 mi
4:20 PM90 °FClear.3 mph33%30.04 "Hg5 mi
3:50 PM90 °FClear.3 mph36%30.04 "Hg5 mi
3:20 PM90 °FSunny.5 mph36%30.04 "Hg10 mi
2:50 PM90 °FClear.6 mph31%30.04 "Hg4 mi
2:20 PM91 °FClear.7 mph30%30.04 "Hg4 mi
1:50 PM91 °FClear.7 mph32%30.07 "Hg4 mi
1:20 PM90 °FPassing clouds.7 mph38%30.07 "HgN/A
12:50 PM84 °FPassing clouds.6 mph74%30.07 "HgN/A
12:20 PM81 °FPassing clouds.3 mph84%30.07 "HgN/A
11:50 AM81 °FClear.5 mph84%30.09 "Hg4 mi
11:20 AM81 °FClear.2 mph84%30.07 "Hg4 mi
10:50 AM79 °FClear.3 mph89%30.09 "Hg4 mi
10:20 AM79 °FClear.6 mph89%30.09 "Hg4 mi
9:50 AM79 °FClear.3 mph89%30.09 "Hg4 mi
9:20 AM79 °FSunny.7 mph89%30.09 "Hg10 mi
8:50 AM79 °FSunny.2 mph89%30.09 "Hg10 mi
8:20 AM79 °FSunny.1 mph89%30.07 "Hg10 mi
7:50 AM77 °FClear.8 mph89%30.07 "Hg10 mi
7:20 AM77 °FClear.14 mph89%30.04 "Hg10 mi
6:50 AM75 °FClear.12 mph94%30.04 "Hg10 mi
6:20 AM75 °FClear.7 mph89%30.04 "Hg10 mi
5:50 AM75 °FClear.2 mph89%30.01 "Hg10 mi
5:20 AM75 °FClear.2 mph89%30.01 "Hg6 mi
4:50 AM73 °FClear.2 mph94%30.04 "Hg6 mi
4:20 AM75 °FClear.1 mph89%30.04 "Hg6 mi
3:50 AM75 °FClear.2 mph89%30.04 "Hg6 mi
3:20 AM75 °FClear.8 mph94%30.04 "Hg10 mi
2:50 AM73 °FClear.5 mph94%30.04 "Hg5 mi
1:50 AM75 °FPassing clouds.5 mph89%30.07 "HgN/A
1:20 AM77 °FPassing clouds.5 mph89%30.07 "HgN/A
12:50 AM77 °FClear.2 mph89%30.07 "Hg10 mi
12:20 AM77 °FClear.5 mph89%30.07 "Hg10 mi
11:50 PM
Sep 20
77 °FClear.6 mph89%30.09 "Hg10 mi
11:20 PM77 °FClear.7 mph89%30.09 "Hg10 mi
10:20 PM79 °FClear.7 mph89%30.09 "Hg4 mi
9:20 PM79 °FClear.8 mph84%30.09 "Hg4 mi
8:50 PM79 °FClear.8 mph84%30.09 "Hg4 mi
8:20 PM81 °FClear.10 mph79%30.07 "Hg4 mi
Weather by CustomWeather, © 2014

See weather overviewHow to use our weather pages